Regional Weather Roundup
Issued by NWS Midland/Odessa, TX

Home | Current Version | Previous Version | Text Only | Print | Product List | Glossary On
Versions: 1 2 3 4 5 6 7 8 9 10 11 12 13 14 15 16 17 18 19 20 21 22 23 24 25 26 27 28 29 30 31 32 33 34 35 36 37 38 39 40 41 42 43 44 45 46 47 48 49 50
000
ASUS44 KMAF 012210
RWRMAF
MIDLAND AREA WEATHER ROUNDUP
NATIONAL WEATHER SERVICE MIDLAND TX
400 PM CST SUN FEB 01 2015

...IN SOUTHWEST TEXAS AND SOUTHEAST NEW MEXICO...

CITY           SKY/WX    TMP DP  RH WIND       PRES   REMARKS
ALPINE         CLOUDY    51  41  67 N16       30.16R
ANDREWS        PTSUNNY   50  35  57 NE7       30.14S
ARTESIA        CLOUDY    50  37  62 NE3       30.14S
BIG SPRING     PTSUNNY   52  35  51 NE13G22   30.16R
CARLSBAD       CLOUDY    52  36  54 E3        30.13S
DRYDEN           N/A     61  48  62 N16G26    30.02R
FORT STOCKTON  CLOUDY    52  43  71 NE12      30.13R
GUAD PASS      CLOUDY    40  35  83 NE30      30.11S WCI  28
HOBBS          PTSUNNY   48  36  61 N13       30.14R
MARFA          SUNNY     52  41  66 N21       30.10S
MIDLAND AIRPK  CLOUDY    51  39  63 NE9       30.14S
MIDLAND INTL   CLOUDY    50  39  66 NE10      30.14R
ODESSA         PTSUNNY   50  37  61 NE15      30.15R
PECOS          CLOUDY    53  41  63 N8        30.14R
PRESIDIO       FAIR      66  40  38 SW6       30.02S
SEMINOLE       MOSUNNY   48  34  58 NE9G17    30.15R
SNYDER         PTSUNNY  N/A N/A N/A NE15      30.15R
WINK           CLOUDY    52  36  54 NE10      30.13R
$$
...OTHER STATIONS IN TEXAS...

CITY           SKY/WX    TMP DP  RH WIND       PRES   REMARKS
ABILENE        SUNNY     48  32  53 N15       30.15R
AMARILLO       SUNNY     40  22  48 N22G31    30.16R WCI  30
AUSTIN         PTSUNNY   68  53  58 N16       29.97R
BROWNSVILLE    PTSUNNY   76  61  59 S10       29.89R
CORPUS CHRISTI PTSUNNY   80  59  48 VRB3      29.88R
DALLAS FTW     PTSUNNY   50  34  54 NW23G35   30.07R
DEL RIO        MOSUNNY   73  51  46 N18G26    29.95R
EL PASO        MOSUNNY   59  39  47 CALM      30.06F
HOUSTON INT    CLOUDY    72  60  66 NW10G18   29.88R
LUBBOCK        MOSUNNY   47  29  49 NE15G23   30.13R
SAN ANGELO     PTSUNNY   56  41  57 N15       30.09R
SAN ANTONIO    PTSUNNY   73  53  49 N21G29    29.95R
WACO           SUNNY     57  40  52 NW17G26   30.03R
WICHITA FALLS  NOT AVBL
$$
...OTHER LOCATIONS IN NEW MEXICO...

CITY           SKY/WX    TMP DP  RH WIND       PRES   REMARKS
ALAMAGORDO     MOSUNNY   57  37  47 SW7       30.07S
ALBUQUERQUE    MOSUNNY   49  29  46 VRB3      30.10F
CANNON AFB     NOT AVBL
CLOVIS         SUNNY     45  25  45 NE13      30.12S WCI  38
HOLLOMAN AFB   MOSUNNY   57  37  47 W6        30.06R
ROSWELL        CLOUDY    50  33  52 CALM      30.13R
RUIDOSO        MOSUNNY   37  32  81 SE10      30.13R WCI  30
SANTA FE       SUNNY     41  26  55 W6        30.08F WCI  37
TRUTH OR CONSE SUNNY     54  35  48 SE6       30.06F
TUCUMCARI      CLOUDY    45  26  47 E13       30.11S WCI  39
$$


USA.gov is the U.S. government's official web portal to all federal, state and local government web resources and services.